Terug naar catalogus

STARLINK-6182

ActiefCommunicatieVLEO
NORAD 56878·PAYLOAD·🇺🇸 United States

Gelanceerd Jun 12, 2023 vanaf Cape Canaveral Space Force Station

Loading…

Volgende Passages (komende 24 uur)

TLE

VersSource: CelesTrak SupGP

Epoch: Sep 15, 2026, 02:33 UTC

1 56878C 23083C   26258.10673611  .00023037  00000+0  83426-3 0  2586
2 56878  43.0006  95.7707 0002138 262.7477 174.2804 15.27571208    18

Volg STARLINK-6182 in realtime met AllMySat

Download on the App Store